Skip Page Navigation
NASA JPL Caltech
NASA Logo - Jet Propulsion Laboratory + View the NASA Portal
+ Center for Near-Earth Object Studies
JPL Home Earth Solar System Stars & Galaxies Technology
JPL Solar System Dynamics
BODIES ORBITS EPHEMERIDES TOOLS PHYSICAL DATA DISCOVERY FAQ SITE MAP
JPL Small-Body Database Browser
Search: [ help ]  
70096 (1999 JC120)
Classification: Main-belt Asteroid          SPK-ID: 2070096
Ephemeris | Orbit Diagram | Orbital Elements | Mission Design | Physical Parameters | Discovery Circumstances ]

[ show orbit diagram ]
Orbital Elements at Epoch 2459200.5 (2020-Dec-17.0) TDB
Reference: JPL 26 (heliocentric ecliptic J2000)
 Element Value Uncertainty (1-sigma)   Units 
e .05647538074118495 3.5861e-08  
a 2.177800706650028 6.2173e-09 au
q 2.054808582563546 7.7466e-08 au
i 5.58668574084033 5.0989e-06 deg
node 218.6480381186126 3.1015e-05 deg
peri 113.0583614664786 5.3182e-05 deg
M 174.9894591482485 4.3878e-05 deg
tp 2458629.895730986025
(2019-May-26.39573099)
0.00014256 TDB
period 1173.885203399619
3.21
5.0269e-06
1.376e-08
d
yr
n .3066739396300638 1.3133e-09 deg/d
Q 2.30079283073651 6.5685e-09 au
  Orbit Determination Parameters
   # obs. used (total)      1369  
   data-arc span      7985 days (21.86 yr)  
   first obs. used      1999-05-13  
   last obs. used      2021-03-23  
   planetary ephem.      DE441  
   SB-pert. ephem.      SB441-N16  
   condition code      0  
   norm. resid. RMS      .51352  
   source      ORB  
   producer      Otto Matic  
   solution date      2021-May-04 07:10:22  

Additional Information
 Earth MOID = 1.05039 au 
 Jupiter MOID = 2.85121 au 
 T_jup = 3.675 
[ show covariance matrix ]

Ephemeris | Orbit Diagram | Orbital Elements | Mission Design | Physical Parameters | Discovery Circumstances ]

Physical Parameter Table
Parameter Symbol Value Units Sigma Reference Notes
absolute magnitude H 15.64   n/a MPCxxxxx  
diameter diameter 4.222 km 1.055 urn:nasa:pds:neowise_diameters_albedos::2.0[mainbelt] (http://adsabs.harvard.edu/abs/2016AJ....152...63N)  
geometric albedo albedo 0.037   0.025 urn:nasa:pds:neowise_diameters_albedos::2.0[mainbelt] (http://adsabs.harvard.edu/abs/2017AJ....154..168M)  

70096 (1999 JC120)          Discovered 1999-May-13 by LINEAR at Socorro
Reference: 20031109/Numbers.arcLast Updated: 2004-04-19

Alternate Designations
 1999 JC120 = 2000 UO50 
Ephemeris | Orbit Diagram | Orbital Elements | Mission Design | Physical Parameters | Discovery Circumstances ]
ABOUT SSD CREDITS/AWARDS PRIVACY/COPYRIGHT GLOSSARY LINKS
FirstGov 2021-May-11 20:58 UT
(server date/time)  
NASA Home Page
Site Manager:   Ryan S. Park
Webmaster  Alan B. Chamberlin